EWG1PF LIBD-EDDL

Flight info

Callsign EWG1PF
Flight time N/A
Altitude 36000
Route EKMUR T415 VIE DCT XOLTA DCT PEVAL DCT MOBDO DCT SOTOV DCT KPT DCT VEKIR DCT HAREM DCT LOHRE Z850 ADEMI T854 DOMUX DOMUX1A
Aircraft A320/M-SDE3FGHIRWY/LB1

Departure

Time 2026-05-05 07:31
Airport Bari Karol Wojtyła International Airport (LIBD)

Arrival

Time N/A
Airport Düsseldorf Airport (EDDL)
Time Latitude Longitude Altitude Speed Heading
2026-05-05 06:52 41.13522 16.76346 136 ft 0 kts 159°
2026-05-05 07:22 41.13528 16.76344 136 ft 4 kts 158°
2026-05-05 07:22 41.13553 16.76329 136 ft 4 kts 149°
2026-05-05 07:23 41.13574 16.76309 136 ft 4 kts 130°
2026-05-05 07:23 41.13584 16.76281 136 ft 4 kts 77°
2026-05-05 07:23 41.13582 16.76270 136 ft 0 kts 69°
2026-05-05 07:26 41.13600 16.76334 136 ft 13 kts 71°
2026-05-05 07:26 41.13634 16.76453 136 ft 14 kts 70°
2026-05-05 07:26 41.13661 16.76523 136 ft 6 kts 45°
2026-05-05 07:26 41.13700 16.76550 136 ft 7 kts 26°
2026-05-05 07:27 41.13747 16.76561 136 ft 8 kts 349°
2026-05-05 07:27 41.13795 16.76561 135 ft 8 kts 27°
2026-05-05 07:27 41.13835 16.76662 132 ft 16 kts 70°
2026-05-05 07:27 41.13882 16.76825 124 ft 21 kts 69°
2026-05-05 07:28 41.13936 16.77017 124 ft 23 kts 70°
2026-05-05 07:28 41.13989 16.77203 120 ft 18 kts 68°
2026-05-05 07:28 41.14028 16.77341 122 ft 16 kts 70°
2026-05-05 07:28 41.14097 16.77401 118 ft 12 kts 18°
2026-05-05 07:29 41.14156 16.77422 118 ft 7 kts
2026-05-05 07:29 41.14203 16.77406 114 ft 7 kts 337°
2026-05-05 07:29 41.14220 16.77372 117 ft 7 kts 278°
2026-05-05 07:29 41.14214 16.77340 113 ft 0 kts 249°
2026-05-05 07:30 41.14214 16.77338 113 ft 3 kts 249°
2026-05-05 07:30 41.13926 16.76322 125 ft 124 kts 249°
2026-05-05 07:30 41.13564 16.75029 224 ft 166 kts 248°
2026-05-05 07:31 41.13182 16.73564 844 ft 168 kts 248°
2026-05-05 07:31 41.12913 16.72581 1368 ft 167 kts 246°
2026-05-05 07:31 41.12506 16.71149 2133 ft 165 kts 246°
2026-05-05 07:31 41.12100 16.69737 2787 ft 163 kts 248°
2026-05-05 07:32 41.11699 16.68352 3404 ft 163 kts 246°
2026-05-05 07:32 41.11269 16.66875 3750 ft 182 kts 246°
2026-05-05 07:32 41.10783 16.65216 3967 ft 205 kts 247°
2026-05-05 07:32 41.10247 16.63373 4342 ft 220 kts 246°
2026-05-05 07:33 41.09695 16.61465 5115 ft 222 kts 246°
2026-05-05 07:33 41.09151 16.59536 5857 ft 225 kts 251°
2026-05-05 07:33 41.09135 16.57458 6516 ft 234 kts 288°
2026-05-05 07:33 41.10118 16.55733 7161 ft 242 kts 325°
2026-05-05 07:34 41.11722 16.55079 7805 ft 248 kts
2026-05-05 07:34 41.13390 16.55658 8498 ft 250 kts 20°
2026-05-05 07:34 41.15021 16.56488 9235 ft 252 kts 21°
2026-05-05 07:34 41.16664 16.57351 9956 ft 255 kts 20°
2026-05-05 07:35 41.18319 16.58219 10619 ft 257 kts 20°
2026-05-05 07:35 41.19992 16.59086 11284 ft 259 kts 20°
2026-05-05 07:35 41.21682 16.59957 11961 ft 261 kts 19°
2026-05-05 07:35 41.23449 16.60501 12610 ft 262 kts
2026-05-05 07:36 41.25289 16.60322 13022 ft 274 kts 343°
2026-05-05 07:36 41.27152 16.59459 13205 ft 295 kts 337°
2026-05-05 07:36 41.29148 16.58450 13362 ft 318 kts 337°
2026-05-05 07:36 41.31294 16.57370 13504 ft 341 kts 337°
2026-05-05 07:37 41.33575 16.56228 13760 ft 357 kts 338°
2026-05-05 07:37 41.35928 16.55058 14291 ft 363 kts 338°
2026-05-05 07:37 41.38305 16.53880 14900 ft 366 kts 338°
2026-05-05 07:37 41.40692 16.52677 15523 ft 368 kts 334°
2026-05-05 07:38 41.42909 16.50976 16125 ft 369 kts 323°
2026-05-05 07:38 41.45007 16.49003 16731 ft 371 kts 323°
2026-05-05 07:38 41.47095 16.47028 17328 ft 374 kts 323°
2026-05-05 07:38 41.49223 16.45010 17936 ft 376 kts 323°
2026-05-05 07:39 41.51363 16.42981 18514 ft 379 kts 323°
2026-05-05 07:39 41.53518 16.40936 19062 ft 381 kts 323°
2026-05-05 07:39 41.55681 16.38886 19627 ft 382 kts 323°
2026-05-05 07:39 41.57847 16.36834 20200 ft 383 kts 323°
2026-05-05 07:40 41.60023 16.34769 20775 ft 384 kts 322°
2026-05-05 07:40 41.62205 16.32696 21312 ft 386 kts 322°
2026-05-05 07:40 41.64400 16.30610 21851 ft 388 kts 322°
2026-05-05 07:40 41.66604 16.28514 22374 ft 389 kts 322°
2026-05-05 07:41 41.68812 16.26408 22897 ft 391 kts 322°
2026-05-05 07:41 41.71027 16.24290 23402 ft 392 kts 322°
2026-05-05 07:41 41.73257 16.22161 23854 ft 394 kts 322°
2026-05-05 07:41 41.75487 16.20033 24255 ft 395 kts 322°
2026-05-05 07:42 41.77728 16.17897 24667 ft 396 kts 322°
2026-05-05 07:42 41.79979 16.15751 25042 ft 397 kts 322°
2026-05-05 07:42 41.82233 16.13595 25423 ft 399 kts 321°
2026-05-05 07:42 41.84494 16.11430 25788 ft 400 kts 321°
2026-05-05 07:43 41.86763 16.09257 26147 ft 401 kts 321°
2026-05-05 07:43 41.89038 16.07079 26510 ft 403 kts 322°
2026-05-05 07:43 41.91473 16.05159 26835 ft 409 kts 331°
2026-05-05 07:43 41.94160 16.03813 27177 ft 416 kts 340°
2026-05-05 07:44 41.96958 16.02776 27522 ft 417 kts 340°
2026-05-05 07:44 41.99761 16.01734 27854 ft 419 kts 340°
2026-05-05 07:44 42.02569 16.00681 28187 ft 420 kts 340°
2026-05-05 07:44 42.05386 15.99619 28505 ft 421 kts 339°
2026-05-05 07:45 42.08218 15.98545 28746 ft 424 kts 339°
2026-05-05 07:45 42.11066 15.97465 29023 ft 427 kts 339°
2026-05-05 07:45 42.13934 15.96379 29263 ft 429 kts 339°
2026-05-05 07:45 42.16813 15.95289 29530 ft 431 kts 339°
2026-05-05 07:46 42.19707 15.94192 29801 ft 432 kts 339°
2026-05-05 07:46 42.22608 15.93097 30072 ft 434 kts 339°
2026-05-05 07:46 42.25518 15.91995 30283 ft 435 kts 338°
2026-05-05 07:46 42.28433 15.90886 30496 ft 436 kts 338°
2026-05-05 07:47 42.31353 15.89774 30729 ft 436 kts 338°
2026-05-05 07:47 42.34265 15.88665 31020 ft 435 kts 338°
2026-05-05 07:47 42.37141 15.87572 31293 ft 434 kts 338°
2026-05-05 07:47 42.40085 15.86453 31589 ft 433 kts 338°
2026-05-05 07:48 42.42940 15.85369 31881 ft 432 kts 338°
2026-05-05 07:48 42.45828 15.84270 32181 ft 430 kts 338°
2026-05-05 07:48 42.48703 15.83172 32481 ft 429 kts 338°
2026-05-05 07:48 42.51564 15.82076 32784 ft 427 kts 337°
2026-05-05 07:49 42.54422 15.80979 33080 ft 426 kts 337°
2026-05-05 07:49 42.57274 15.79883 33347 ft 426 kts 337°
2026-05-05 07:49 42.60124 15.78788 33627 ft 425 kts 337°
2026-05-05 07:49 42.62965 15.77696 33911 ft 424 kts 337°
2026-05-05 07:50 42.65796 15.76610 34180 ft 423 kts 337°
2026-05-05 07:50 42.68616 15.75485 34408 ft 420 kts 333°
2026-05-05 07:50 42.71262 15.73914 34605 ft 412 kts 325°
2026-05-05 07:50 42.73675 15.71856 34790 ft 408 kts 320°
2026-05-05 07:51 42.76030 15.69693 34971 ft 409 kts 320°
2026-05-05 07:51 42.78399 15.67527 35131 ft 411 kts 320°
2026-05-05 07:51 42.80775 15.65364 35300 ft 411 kts 321°
2026-05-05 07:51 42.83156 15.63199 35462 ft 412 kts 320°
2026-05-05 07:52 42.85544 15.61023 35596 ft 413 kts 320°
2026-05-05 07:52 42.87934 15.58835 35750 ft 414 kts 320°
2026-05-05 07:52 42.90326 15.56642 35922 ft 414 kts 320°
2026-05-05 07:52 42.92719 15.54449 36027 ft 415 kts 320°
2026-05-05 07:53 42.97510 15.50056 36069 ft 415 kts 321°
2026-05-05 07:53 43.02309 15.45646 36049 ft 417 kts 321°
2026-05-05 07:54 43.07123 15.41218 36049 ft 417 kts 321°
2026-05-05 07:54 43.11932 15.36780 36058 ft 417 kts 321°
2026-05-05 07:55 43.16736 15.32337 36049 ft 417 kts 321°
2026-05-05 07:55 43.21543 15.27883 36064 ft 418 kts 321°
2026-05-05 07:56 43.26327 15.23435 36042 ft 419 kts 321°
2026-05-05 07:56 43.31156 15.18941 36037 ft 420 kts 321°
2026-05-05 07:57 43.35990 15.14430 36037 ft 420 kts 321°
2026-05-05 07:57 43.40836 15.09913 36038 ft 421 kts 321°
2026-05-05 07:58 43.45687 15.05385 36038 ft 422 kts 322°
2026-05-05 07:58 43.50547 15.00832 36036 ft 423 kts 322°
2026-05-05 07:59 43.55409 14.96263 36036 ft 423 kts 322°
2026-05-05 07:59 43.60280 14.91673 36041 ft 424 kts 322°
2026-05-05 08:00 43.65153 14.87074 36046 ft 425 kts 322°
2026-05-05 08:00 43.70045 14.82454 36038 ft 426 kts 321°
2026-05-05 08:01 43.74934 14.77810 36037 ft 427 kts 322°
2026-05-05 08:01 43.79804 14.73198 36039 ft 427 kts 322°
2026-05-05 08:02 43.84710 14.68539 36037 ft 427 kts 321°
2026-05-05 08:02 43.89612 14.63866 36043 ft 428 kts 321°
2026-05-05 08:03 43.94512 14.59185 36047 ft 428 kts 321°
2026-05-05 08:03 43.99410 14.54491 36046 ft 428 kts 321°
2026-05-05 08:04 44.04309 14.49795 36042 ft 428 kts 321°
2026-05-05 08:04 44.09209 14.45096 36058 ft 428 kts 321°
2026-05-05 08:05 44.14115 14.40378 36048 ft 429 kts 321°
2026-05-05 08:05 44.19013 14.35644 36044 ft 429 kts 321°
2026-05-05 08:06 44.23915 14.30896 36041 ft 429 kts 321°
2026-05-05 08:06 44.28824 14.26149 36039 ft 429 kts 321°
2026-05-05 08:07 44.33740 14.21393 36039 ft 430 kts 321°
2026-05-05 08:07 44.38660 14.16614 36037 ft 431 kts 321°
2026-05-05 08:08 44.43577 14.11813 36039 ft 431 kts 321°
2026-05-05 08:08 44.48496 14.07010 36040 ft 431 kts 321°
2026-05-05 08:09 44.53417 14.02200 36052 ft 432 kts 321°
2026-05-05 08:09 44.58339 13.97366 36044 ft 432 kts 321°
2026-05-05 08:10 44.63270 13.92522 36042 ft 433 kts 321°
2026-05-05 08:10 44.68168 13.87694 36042 ft 433 kts 321°
2026-05-05 08:11 44.73100 13.82825 36046 ft 433 kts 321°
2026-05-05 08:11 44.78033 13.77953 36049 ft 434 kts 321°
2026-05-05 08:12 44.82975 13.73057 36047 ft 434 kts 321°
2026-05-05 08:12 44.87916 13.68146 36044 ft 435 kts 321°
2026-05-05 08:13 44.92859 13.63218 36039 ft 435 kts 321°
2026-05-05 08:13 44.97806 13.58281 36047 ft 435 kts 321°
2026-05-05 08:14 45.02752 13.53344 36031 ft 436 kts 321°
2026-05-05 08:14 45.07701 13.48392 36039 ft 436 kts 321°
2026-05-05 08:15 45.12657 13.43425 36030 ft 437 kts 321°
2026-05-05 08:15 45.17611 13.38437 36028 ft 437 kts 321°
2026-05-05 08:16 45.22562 13.33443 36032 ft 437 kts 321°
2026-05-05 08:16 45.27478 13.28462 36032 ft 437 kts 321°
2026-05-05 08:17 45.32346 13.23243 36035 ft 434 kts 315°
2026-05-05 08:17 45.36843 13.17587 36024 ft 435 kts 315°
2026-05-05 08:18 45.41373 13.11884 36028 ft 435 kts 315°
2026-05-05 08:18 45.45904 13.06159 36018 ft 436 kts 315°
2026-05-05 08:19 45.50442 13.00420 36013 ft 436 kts 315°
2026-05-05 08:19 45.54985 12.94674 36027 ft 437 kts 314°
2026-05-05 08:20 45.58762 12.89874 36016 ft 437 kts 314°
2026-05-05 08:20 45.63303 12.84097 36016 ft 438 kts 314°
2026-05-05 08:21 45.67856 12.78296 36014 ft 439 kts 315°
2026-05-05 08:21 45.72405 12.72477 36013 ft 439 kts 314°
2026-05-05 08:22 45.76955 12.66630 36014 ft 440 kts 314°
2026-05-05 08:22 45.81509 12.60775 36022 ft 440 kts 314°
2026-05-05 08:23 45.86072 12.54906 36020 ft 441 kts 314°
2026-05-05 08:23 45.90628 12.49023 36020 ft 441 kts 314°
2026-05-05 08:24 45.95195 12.43123 36016 ft 442 kts 314°
2026-05-05 08:24 45.99765 12.37198 36018 ft 442 kts 314°
2026-05-05 08:25 46.04335 12.31258 36022 ft 443 kts 314°
2026-05-05 08:25 46.08902 12.25304 36009 ft 443 kts 314°
2026-05-05 08:26 46.13475 12.19335 36005 ft 444 kts 314°